Simultaneous Nadir Overpasses (SNOs) Predictions

Prediction of SNOs between GOES-15 and TERRA Satellite Orbit:

Table of predicted SNOs for the next 14.0 days since TLE Epoch: 1/18/2025
Index Date Time (GOES-15) GOES-15 Lat,Lon TERRA Lat,Lon Distance(km) Time Diff (sec)
1 01/18/2025 05:27:00 -0.01, 61.48 -0.07, 61.85 41.76 80
2 01/20/2025 17:28:13 0.00, 61.51 -0.01, 61.51 1.34 80
3 01/23/2025 05:26:36 -0.02, 61.53 0.03, 61.21 36.86 80
4 01/25/2025 05:10:41 -0.01, 61.56 -0.87, 65.69 468.84 80
5 01/25/2025 17:30:27 0.01, 61.58 -0.13, 60.88 78.62 80
6 01/27/2025 17:09:11 0.00, 61.62 0.76, 65.37 425.85 80
7 01/28/2025 05:28:48 -0.00, 61.63 0.20, 60.59 117.70 80
8 01/30/2025 05:12:52 0.00, 61.68 -0.71, 65.08 387.07 80
9 01/30/2025 17:32:36 -0.00, 61.68 -0.31, 60.28 159.00 80
